Weather History for Fosston, MN

Change the Weather History Date:

Thursday, March 7, 2013

  Actual Average Record
Temperature  
Mean Temperature 18 °F -  
Max Temperature 37 °F 28 °F 51 °F (1968)
Min Temperature 0 °F 4 °F -27 °F (1967)
Degree Days  
Heating Degree Days 46    
Moisture  
Dew Point 10 °F    
Average Humidity 71    
Maximum Humidity 92    
Minimum Humidity 45    
Precipitation  
Precipitation 0.00 in - - ()
Sea Level Pressure  
Sea Level Pressure 30.24 in    
Wind  
Wind Speed 7 mph (SE)    
Max Wind Speed 14 mph    
Max Gust Speed 20 mph    
Visibility 10 miles    
Events      
Averages and records for this station are not official NWS values.
T = Trace of Precipitation, MM = Missing Value Source: NWS Daily Summary

Daily Weather History Graph

Daily Weather History Graph

Search for Another Location

Airport:

Trip Planner

Search our weather history database for the weather conditions in past years. The results will help you decide how hot, cold, wet, or windy it might be!

Date:

Astronomy

Mar. 07, 2013 Rise Set
Actual Time 6:51 AM CST 6:17 PM CST
Civil Twilight 6:20 AM CST 6:48 PM CST
Nautical Twilight 5:45 AM CST 7:23 PM CST
Astronomical Twilight 5:09 AM CST 7:59 PM CST
Moon 4:07 AM CST (3/7) 1:52 PM CST (3/7)
Length of Visible Light 12h 27m
Length of Day
11h 25m
Waning Crescent, 20% of the Moon is Illuminated
Mar 7
Waning Crescent
Mar 11
New
Mar 19
First Quarter
Mar 27
Full
Apr 2
Last Quarter

Hourly Weather History & Observations

Time (CST) Temp. Windchill Dew Point Humidity Pressure Visibility Wind Dir Wind Speed Gust Speed Precip Events Conditions
12:15 AM 1.4 °F -11.3 °F -2.2 °F 85% 30.28 in 10.0 mi East 6.9 mph - N/A   Clear
12:35 AM 3.2 °F -6.2 °F -0.4 °F 85% 30.30 in 10.0 mi East 4.6 mph - N/A   Clear
12:55 AM 3.2 °F - -0.4 °F 85% 30.31 in 10.0 mi Calm Calm - N/A   Clear
1:15 AM 3.2 °F - -0.4 °F 85% 30.31 in 10.0 mi Calm Calm - N/A   Clear
1:35 AM 1.4 °F - -2.2 °F 85% 30.31 in 10.0 mi Calm Calm - N/A   Clear
1:55 AM 1.4 °F - -0.4 °F 92% 30.32 in 10.0 mi Calm Calm - N/A   Clear
2:15 AM 1.4 °F -6.2 °F -2.2 °F 85% 30.32 in 10.0 mi ESE 3.5 mph - N/A   Clear
2:35 AM -0.4 °F -10.4 °F -4.0 °F 85% 30.31 in 10.0 mi ESE 4.6 mph - N/A   Clear
2:55 AM 1.4 °F -9.9 °F -2.2 °F 85% 30.30 in 10.0 mi East 5.8 mph - N/A   Clear
3:15 AM 3.2 °F -7.8 °F -0.4 °F 85% 30.30 in 10.0 mi ESE 5.8 mph - N/A   Clear
3:35 AM 3.2 °F -9.1 °F 1.4 °F 92% 30.30 in 10.0 mi ESE 6.9 mph - N/A   Clear
3:55 AM 3.2 °F -7.8 °F 1.4 °F 92% 30.29 in 10.0 mi East 5.8 mph - N/A   Clear
4:15 AM 3.2 °F -10.3 °F 1.4 °F 92% 30.28 in 10.0 mi East 8.1 mph - N/A   Clear
4:35 AM 6.8 °F -4.8 °F 3.2 °F 85% 30.28 in 10.0 mi ESE 6.9 mph - N/A   Clear
4:55 AM 6.8 °F -5.9 °F 3.2 °F 85% 30.27 in 10.0 mi ESE 8.1 mph - N/A   Clear
5:15 AM 8.6 °F -4.7 °F 6.8 °F 92% 30.26 in 10.0 mi ESE 9.2 mph - N/A   Clear
5:35 AM 10.4 °F -3.3 °F 8.6 °F 92% 30.27 in 10.0 mi ESE 10.4 mph - N/A   Clear
5:55 AM 10.4 °F -3.3 °F 8.6 °F 92% 30.27 in 10.0 mi SE 10.4 mph - N/A   Clear
6:15 AM 10.4 °F -1.5 °F 6.8 °F 85% 30.27 in 10.0 mi ESE 8.1 mph - N/A   Clear
6:35 AM 10.4 °F -3.3 °F 6.8 °F 85% 30.26 in 10.0 mi ESE 10.4 mph - N/A   Clear
6:55 AM 10.4 °F -4.1 °F 8.6 °F 92% 30.27 in 10.0 mi ESE 11.5 mph - N/A   Clear
7:15 AM 12.2 °F -1.0 °F 8.6 °F 85% 30.27 in 10.0 mi ESE 10.4 mph - N/A   Clear
7:35 AM 12.2 °F -1.0 °F 10.4 °F 92% 30.26 in 10.0 mi ESE 10.4 mph - N/A   Clear
7:55 AM 14.0 °F 0.5 °F 10.4 °F 86% 30.27 in 10.0 mi ESE 11.5 mph - N/A   Clear
8:15 AM 14.0 °F 2.0 °F 10.4 °F 86% 30.28 in 10.0 mi SE 9.2 mph 16.1 mph N/A   Clear
8:35 AM 17.6 °F 5.0 °F 12.2 °F 79% 30.27 in 10.0 mi ESE 11.5 mph - N/A   Clear
8:55 AM 19.4 °F 7.9 °F 14.0 °F 80% 30.27 in 10.0 mi SE 10.4 mph - N/A   Clear
9:15 AM 19.4 °F 6.0 °F 12.2 °F 74% 30.26 in 10.0 mi SE 13.8 mph - N/A   Clear
9:35 AM 21.2 °F 9.5 °F 12.2 °F 68% 30.26 in 10.0 mi ESE 11.5 mph 19.6 mph N/A   Clear
9:55 AM 23.0 °F 12.4 °F 12.2 °F 63% 30.27 in 10.0 mi SE 10.4 mph - N/A   Clear
10:15 AM 24.8 °F 14.6 °F 14.0 °F 64% 30.27 in 10.0 mi SE 10.4 mph - N/A   Clear
10:35 AM 26.6 °F 17.5 °F 15.8 °F 64% 30.26 in 10.0 mi SE 9.2 mph - N/A   Clear
10:55 AM 26.6 °F 17.5 °F 17.6 °F 69% 30.25 in 10.0 mi SE 9.2 mph - N/A   Clear
11:15 AM 28.4 °F 19.1 °F 15.8 °F 59% 30.25 in 10.0 mi ESE 10.4 mph - N/A   Clear
11:35 AM 30.2 °F 21.9 °F 15.8 °F 55% 30.25 in 10.0 mi SE 9.2 mph - N/A   Clear
11:55 AM 30.2 °F 20.8 °F 17.6 °F 60% 30.25 in 10.0 mi SE 11.5 mph - N/A   Clear
12:15 PM 30.2 °F 20.2 °F 15.8 °F 55% 30.25 in 10.0 mi SE 12.7 mph 16.1 mph N/A   Clear
12:35 PM 30.2 °F 21.9 °F 15.8 °F 55% 30.24 in 10.0 mi ESE 9.2 mph - N/A   Clear
12:55 PM 30.2 °F 20.8 °F 17.6 °F 60% 30.23 in 10.0 mi ESE 11.5 mph 16.1 mph N/A   Clear
1:15 PM 32.0 °F 23.6 °F 15.8 °F 51% 30.22 in 10.0 mi ESE 10.4 mph - N/A   Clear
1:35 PM 33.8 °F 25.3 °F 17.6 °F 52% 30.22 in 10.0 mi SE 11.5 mph 16.1 mph N/A   Clear
1:55 PM 33.8 °F 24.8 °F 17.6 °F 52% 30.21 in 10.0 mi ESE 12.7 mph 17.3 mph N/A   Clear
2:15 PM 33.8 °F 25.8 °F 17.6 °F 52% 30.20 in 10.0 mi ESE 10.4 mph 18.4 mph N/A   Clear
2:35 PM 35.6 °F - 17.6 °F 48% 30.20 in 10.0 mi Calm Calm - N/A   Clear
2:55 PM 37.4 °F 29.8 °F 17.6 °F 45% 30.20 in 10.0 mi ESE 11.5 mph 16.1 mph N/A   Clear
3:15 PM 33.8 °F 25.8 °F 15.8 °F 48% 30.19 in 10.0 mi ESE 10.4 mph - N/A   Clear
3:35 PM 33.8 °F 25.8 °F 15.8 °F 48% 30.19 in 10.0 mi ESE 10.4 mph 16.1 mph N/A   Clear
3:55 PM 33.8 °F 25.8 °F 15.8 °F 48% 30.18 in 10.0 mi ESE 10.4 mph 16.1 mph N/A   Clear
4:15 PM 32.0 °F 24.2 °F 15.8 °F 51% 30.17 in 10.0 mi ESE 9.2 mph 18.4 mph N/A   Clear
4:35 PM 30.2 °F 23.4 °F 15.8 °F 55% 30.18 in 10.0 mi ESE 6.9 mph - N/A   Clear
4:55 PM 33.8 °F 27.0 °F 17.6 °F 52% 30.17 in 10.0 mi SE 8.1 mph - N/A   Clear
5:15 PM 33.8 °F 26.4 °F 15.8 °F 48% 30.17 in 10.0 mi ESE 9.2 mph - N/A   Clear
5:35 PM 30.2 °F 26.7 °F 15.8 °F 55% 30.17 in 10.0 mi SE 3.5 mph 17.3 mph N/A   Clear
5:55 PM 28.4 °F 20.4 °F 14.0 °F 55% 30.17 in 10.0 mi SE 8.1 mph - N/A   Clear
7:35 PM 24.8 °F 17.9 °F 15.8 °F 69% 30.19 in 10.0 mi SSE 5.8 mph - N/A   Clear
7:55 PM 21.2 °F - 10.4 °F 63% 30.19 in 10.0 mi Calm Calm - N/A   Clear
8:15 PM 19.4 °F 11.5 °F 10.4 °F 68% 30.20 in 10.0 mi South 5.8 mph - N/A   Clear
8:35 PM 19.4 °F 11.5 °F 10.4 °F 68% 30.20 in 10.0 mi South 5.8 mph - N/A   Clear
8:55 PM 19.4 °F 12.8 °F 10.4 °F 68% 30.19 in 10.0 mi SSE 4.6 mph - N/A   Clear
9:15 PM 17.6 °F 7.3 °F 10.4 °F 73% 30.19 in 10.0 mi SE 8.1 mph - N/A   Clear
9:35 PM 21.2 °F 10.9 °F 10.4 °F 63% 30.18 in 10.0 mi SSE 9.2 mph - N/A   Clear
9:55 PM 21.2 °F 10.9 °F 10.4 °F 63% 30.19 in 10.0 mi SSE 9.2 mph - N/A   Clear
10:15 PM 17.6 °F 7.3 °F 8.6 °F 68% 30.20 in 10.0 mi South 8.1 mph - N/A   Clear
10:35 PM 15.8 °F 5.1 °F 8.6 °F 73% 30.19 in 10.0 mi South 8.1 mph - N/A   Clear
10:55 PM 15.8 °F 7.2 °F 8.6 °F 73% 30.20 in 10.0 mi South 5.8 mph - N/A   Scattered Clouds
11:15 PM 17.6 °F 8.2 °F 10.4 °F 73% 30.20 in 10.0 mi South 6.9 mph - N/A   Overcast
11:35 PM 19.4 °F 8.6 °F 14.0 °F 80% 30.19 in 10.0 mi South 9.2 mph - N/A   Overcast